Location: Unspecified
(0.0000°N, 0.0000°E)
Time: 12:14:20
(UTC+02:00)

GP-B - Visible Passes

Search period start: 16 April 2014 00:00
Search period end: 26 April 2014 00:00
Orbit: 636 x 639 km, 89.9° (Epoch: 14 April)

Date Brightness Start Highest point End Pass type
(mag) Time Alt. Az. Time Alt. Az. Time Alt. Az.
16 Apr 3.7 21:46:00 49° N 21:46:00 49° N 21:49:15 10° N visible
17 Apr 4.6 22:07:43 35° W 22:07:43 35° W 22:11:41 10° NNW visible
18 Apr 4.3 20:51:49 18° ESE 20:53:24 22° E 20:56:47 10° NE visible
18 Apr 5.9 22:29:15 13° WSW 22:30:29 15° W 22:32:58 10° WNW visible
19 Apr 3.2 21:13:04 18° SSE 21:16:14 52° E 21:20:33 10° N visible
20 Apr 3.5 21:34:41 10° S 21:39:05 62° W 21:43:27 10° NNW visible
21 Apr 4.9 20:22:53 10° ESE 20:24:49 13° E 20:26:45 10° ENE visible
21 Apr 5.2 21:58:16 10° SSW 22:01:55 25° W 22:05:33 10° NW visible
22 Apr 3.9 20:43:46 10° SSE 20:47:39 30° E 20:51:31 10° NNE visible
22 Apr 6.3 22:24:04 10° WSW 22:24:44 10° W 22:25:24 10° W visible
23 Apr 3.0 21:06:03 10° S 21:10:30 75° E 21:14:55 10° N visible
24 Apr 4.3 21:29:07 10° SSW 21:33:20 43° W 21:37:32 10° NNW visible
25 Apr 5.8 21:53:07 10° SW 21:56:09 18° W 21:59:11 10° NW visible
